EN

Hourly Weather Osorgino

Today, 14 May, Friday

Time Temperature Precipitation Wind Pressure Humidity
00:00 +20°C° 0 mm 1 mps 758 mmHg 52%
01:00 +20°C° 0 mm 1 mps 758 mmHg 53%
02:00 +19°C° 0 mm 1 mps 758 mmHg 53%
03:00 +18°C° 0 mm 1 mps 758 mmHg 54%
04:00 +18°C° 0 mm 1 mps 758 mmHg 54%
05:00 +19°C° 0 mm 1 mps 758 mmHg 53%
06:00 +20°C° 0 mm 1 mps 758 mmHg 52%
07:00 +21°C° 0 mm 1 mps 759 mmHg 50%
08:00 +23°C° 0 mm 2 mps 759 mmHg 46%
09:00 +25°C° 0 mm 2 mps 759 mmHg 42%
10:00 +26°C° 0 mm 3 mps 759 mmHg 38%
11:00 +27°C° 0 mm 3 mps 758 mmHg 34%
12:00 +28°C° 0 mm 3 mps 758 mmHg 31%
13:00 +29°C° 0 mm 3 mps 758 mmHg 27%
14:00 +29°C° 0 mm 3 mps 758 mmHg 27%
15:00 +29°C° 0 mm 3 mps 758 mmHg 27%
16:00 +30°C° 0 mm 3 mps 757 mmHg 26%
17:00 +28°C° 0 mm 3 mps 757 mmHg 33%
18:00 +27°C° 0 mm 2 mps 757 mmHg 40%
19:00 +26°C° 0 mm 2 mps 757 mmHg 47%
20:00 +24°C° 0 mm 2 mps 757 mmHg 48%
21:00 +23°C° 0 mm 2 mps 757 mmHg 50%
22:00 +21°C° 0 mm 2 mps 757 mmHg 51%
23:00 +20°C° 0 mm 2 mps 757 mmHg 52%

Tomorrow, 15 May, Saturday

Time Temperature Precipitation Wind Pressure Humidity
00:00 +19°C° 0 mm 2 mps 757 mmHg 53%
01:00 +19°C° 0 mm 2 mps 757 mmHg 54%
02:00 +18°C° 0 mm 2 mps 757 mmHg 54%
03:00 +18°C° 0 mm 2 mps 757 mmHg 55%
04:00 +17°C° 0 mm 2 mps 757 mmHg 56%
05:00 +18°C° 0 mm 2 mps 757 mmHg 55%
06:00 +19°C° 0 mm 2 mps 757 mmHg 54%
07:00 +21°C° 0 mm 2 mps 757 mmHg 54%
08:00 +24°C° 0 mm 3 mps 757 mmHg 48%
09:00 +26°C° 0 mm 3 mps 757 mmHg 43%
10:00 +27°C° 0 mm 4 mps 757 mmHg 38%
11:00 +29°C° 0 mm 4 mps 757 mmHg 35%
12:00 +30°C° 0 mm 4 mps 756 mmHg 32%
13:00 +32°C° 0 mm 4 mps 756 mmHg 28%
14:00 +32°C° 0 mm 4 mps 756 mmHg 28%
15:00 +32°C° 0 mm 4 mps 756 mmHg 28%
16:00 +32°C° 0 mm 4 mps 756 mmHg 29%
17:00 +30°C° 0 mm 3 mps 755 mmHg 34%
18:00 +28°C° 0 mm 3 mps 755 mmHg 40%
19:00 +27°C° 0 mm 2 mps 755 mmHg 46%
20:00 +26°C° 0 mm 2 mps 755 mmHg 47%
21:00 +24°C° 0 mm 2 mps 755 mmHg 48%
22:00 +23°C° 0 mm 2 mps 755 mmHg 49%
23:00 +21°C° 0 mm 2 mps 755 mmHg 51%

Day after tomorrow, 16 May, Sunday

Time Temperature Precipitation Wind Pressure Humidity
00:00 +20°C° 0 mm 2 mps 755 mmHg 52%
01:00 +20°C° 0 mm 2 mps 755 mmHg 53%
02:00 +19°C° 0 mm 2 mps 755 mmHg 54%
03:00 +19°C° 0 mm 2 mps 755 mmHg 55%
04:00 +18°C° 0 mm 2 mps 755 mmHg 56%
05:00 +19°C° 0 mm 2 mps 755 mmHg 55%
06:00 +21°C° 0 mm 2 mps 755 mmHg 54%
07:00 +23°C° 0 mm 2 mps 756 mmHg 53%
08:00 +25°C° 0 mm 3 mps 755 mmHg 48%
09:00 +26°C° 0 mm 3 mps 755 mmHg 43%
10:00 +28°C° 0 mm 4 mps 755 mmHg 39%
11:00 +29°C° 0 mm 4 mps 755 mmHg 35%
12:00 +30°C° 0 mm 4 mps 755 mmHg 32%
13:00 +32°C° 0 mm 4 mps 755 mmHg 28%
14:00 +33°C° 0 mm 4 mps 754 mmHg 28%
15:00 +33°C° 0 mm 4 mps 754 mmHg 28%
16:00 +33°C° 0 mm 4 mps 754 mmHg 28%
17:00 +30°C° 0 mm 3 mps 754 mmHg 33%
18:00 +29°C° 0 mm 3 mps 753 mmHg 38%
19:00 +28°C° 0 mm 2 mps 753 mmHg 43%
20:00 +26°C° 0 mm 2 mps 753 mmHg 44%
21:00 +25°C° 0 mm 2 mps 753 mmHg 45%
22:00 +24°C° 0 mm 2 mps 753 mmHg 46%
23:00 +23°C° 0 mm 2 mps 753 mmHg 48%

17 May, Monday

Time Temperature Precipitation Wind Pressure Humidity
00:00 +21°C° 0 mm 3 mps 753 mmHg 49%
01:00 +21°C° 0 mm 3 mps 753 mmHg 51%
02:00 +20°C° 0 mm 3 mps 753 mmHg 53%
03:00 +19°C° 0 mm 3 mps 753 mmHg 55%
04:00 +19°C° 0 mm 3 mps 753 mmHg 57%
05:00 +20°C° 0 mm 3 mps 754 mmHg 56%
06:00 +21°C° 0 mm 3 mps 754 mmHg 56%
07:00 +22°C° 0 mm 3 mps 754 mmHg 56%
08:00 +25°C° 0 mm 3 mps 754 mmHg 51%
09:00 +27°C° 0 mm 3 mps 754 mmHg 45%
10:00 +28°C° 0 mm 3 mps 754 mmHg 40%
11:00 +29°C° 0 mm 3 mps 754 mmHg 38%
12:00 +30°C° 0 mm 3 mps 754 mmHg 35%
13:00 +31°C° 0 mm 3 mps 753 mmHg 33%
14:00 +31°C° 0 mm 3 mps 753 mmHg 31%
15:00 +33°C° 0 mm 3 mps 753 mmHg 30%
16:00 +33°C° 0 mm 3 mps 753 mmHg 29%
17:00 +30°C° 0 mm 3 mps 752 mmHg 36%
18:00 +28°C° 0 mm 2 mps 752 mmHg 43%
19:00 +26°C° 0 mm 2 mps 752 mmHg 50%
20:00 +25°C° 0 mm 2 mps 752 mmHg 52%
21:00 +23°C° 0 mm 2 mps 752 mmHg 55%
22:00 +21°C° 0 mm 2 mps 753 mmHg 57%
23:00 +20°C° 0.1 mm 2 mps 753 mmHg 59%

18 May, Tuesday

Time Temperature Precipitation Wind Pressure Humidity
00:00 +20°C° 0.1 mm 2 mps 752 mmHg 61%
01:00 +20°C° 0.1 mm 2 mps 752 mmHg 63%
02:00 +19°C° 0.1 mm 2 mps 752 mmHg 64%
03:00 +20°C° 0.1 mm 1 mps 752 mmHg 64%
04:00 +19°C° 0.1 mm 1 mps 752 mmHg 65%
05:00 +20°C° 0 mm 1 mps 752 mmHg 63%
06:00 +21°C° 0 mm 1 mps 752 mmHg 61%
07:00 +22°C° 0 mm 1 mps 752 mmHg 59%
08:00 +24°C° 0 mm 1 mps 752 mmHg 53%
09:00 +26°C° 0 mm 1 mps 752 mmHg 47%
10:00 +28°C° 0 mm 1 mps 752 mmHg 41%
11:00 +29°C° 0 mm 1 mps 752 mmHg 38%
12:00 +30°C° 0 mm 2 mps 752 mmHg 36%
13:00 +31°C° 0 mm 2 mps 752 mmHg 33%
14:00 +31°C° 0 mm 2 mps 752 mmHg 34%
15:00 +30°C° 0 mm 3 mps 752 mmHg 35%
16:00 +30°C° 0 mm 3 mps 751 mmHg 35%
17:00 +28°C° 0 mm 3 mps 751 mmHg 43%
18:00 +26°C° 0 mm 3 mps 751 mmHg 51%
19:00 +24°C° 0 mm 3 mps 751 mmHg 59%
20:00 +22°C° 0 mm 3 mps 751 mmHg 59%
21:00 +23°C° 0 mm 2 mps 751 mmHg 59%
22:00 +21°C° 0 mm 2 mps 752 mmHg 59%
23:00 +21°C° 0 mm 2 mps 751 mmHg 60%

19 May, Wednesday

Time Temperature Precipitation Wind Pressure Humidity
00:00 +21°C° 0 mm 1 mps 751 mmHg 60%
01:00 +21°C° 0 mm 1 mps 751 mmHg 61%
02:00 +21°C° 0 mm 1 mps 752 mmHg 63%
03:00 +20°C° 0 mm 1 mps 752 mmHg 66%
04:00 +17°C° 0 mm 0 mps 752 mmHg 68%
05:00 +18°C° 0 mm 0 mps 752 mmHg 66%
06:00 +19°C° 0 mm 0 mps 753 mmHg 64%
07:00 +21°C° 0 mm 0 mps 753 mmHg 61%
08:00 +22°C° 0 mm 0 mps 753 mmHg 56%
09:00 +24°C° 0 mm 0 mps 753 mmHg 51%
10:00 +25°C° 0 mm 0 mps 753 mmHg 46%
11:00 +26°C° 0 mm 0 mps 753 mmHg 43%
12:00 +27°C° 0 mm 0 mps 753 mmHg 40%
13:00 +28°C° 0 mm 0 mps 753 mmHg 37%
14:00 +31°C° 0 mm 1 mps 753 mmHg 34%
15:00 +31°C° 0 mm 1 mps 753 mmHg 32%
16:00 +31°C° 0 mm 1 mps 753 mmHg 29%
17:00 +30°C° 0 mm 2 mps 753 mmHg 34%
18:00 +29°C° 0 mm 2 mps 753 mmHg 39%
19:00 +28°C° 0 mm 2 mps 753 mmHg 45%
20:00 +26°C° 0 mm 2 mps 753 mmHg 47%
21:00 +25°C° 0 mm 2 mps 753 mmHg 50%
22:00 +23°C° 0 mm 2 mps 753 mmHg 52%
23:00 +21°C° 0 mm 2 mps 754 mmHg 56%
Show more

We Need Your Consent

Meteoprog and our Service Providers may store and access personal data such as cookies, device identifiers or other similar technologies on your device and process such data to personalise content and ads, as well as provide social media features and to analyse the traffic.

  • Store and/or access information on your device

    Cookies, device identifiers or other information can be stored or accessed on your device for the purposes indicated above.

  • Personalised ads and content, ad and content measurement, audience insights, and products development

    Ads and content can be personalised based on a profile. More data can be added to better personalise ads and content. Ad and content performance can be measured. Insights about the audience who saw the ads and content can be derived. Such data can be used to develop or improve user’s experience, systems and software.

By clicking ‘I Agree’ you will allow the use of indicated cookies, device identifiers, web beacons or other similar technologies. Your settings can be changed in the browser on your device.

For certain purposes, legitimate interests may be relied on, rather than consent. You can read more about this in our Privacy and Cookie Policy.